[[{"header":{"parameterUnit":"m.s-1","parameterCategory":1,"la1":30.2991,"la2":30.254,"lo1":-89.0895,"lo2":-89.0444,"dy":0.0017,"dx":0.0017,"nx":28,"ny":28,"refTime":"2024-04-27T03:00:00:Z","depth":0,"parameterNumber":2,"parameterNumberName":"U-component_of_WINDS"},"data":[0,0,0,0,0,0,0,0,0,0,0,0,0,0,0,0,0,0,0,0,0,0,0,0,0,0,0,0,0,0,0,0,0,0,0,0,0,0,0,0,0,0,0,0,0,0,0,0,0,0,0,0,0,0,0,0,0,0,-7.5457,-7.5459,0,-7.5618,-7.5619,-7.5621,-7.5623,-7.5621,-7.5619,-7.5617,-7.578,-7.5786,-7.5793,0,0,0,0,0,0,0,0,0,0,0,0,0,-7.5153,-7.5158,-7.5457,-7.5459,-7.5461,-7.5617,-7.5619,-7.5622,-7.5624,-7.5621,-7.5619,-7.5616,-7.5778,-7.5786,-7.5793,0,0,0,0,0,0,0,0,0,0,0,0,0,-7.5296,-7.516,-7.5456,-7.5481,-7.5484,-7.5617,-7.562,-7.5622,-7.5624,-7.5621,-7.5618,-7.5615,-7.5776,-7.5785,-7.5794,-7.5913,0,0,-7.5823,-7.5827,0,0,0,0,0,0,0,0,-7.5288,-7.5307,-7.5475,-7.5479,-7.5484,-7.5597,-7.5572,-7.572,-7.5625,-7.5571,-7.5617,-7.5614,-7.5722,-7.5735,-7.5772,-7.592,-7.5927,-7.5824,-7.5829,-7.5833,-7.5836,0,0,0,0,0,0,0,-7.5278,-7.53,-7.552,-7.5478,-7.5483,-7.5484,-7.5501,-7.56,-7.5661,-7.5575,-7.5576,-7.5595,-7.5724,-7.5763,-7.5776,-7.593,-7.5823,-7.5832,-7.5837,-7.5841,-7.6185,-7.6188,0,0,0,0,0,0,-7.5263,-7.5292,-7.5515,-7.5525,-7.5376,-7.5492,-7.5511,-7.5564,-7.566,-7.5672,-7.5597,-7.5595,-7.5749,-7.5765,-7.5782,-7.5926,-7.5833,-7.5842,-7.5847,-7.6181,-7.6186,-7.6189,0,0,0,0,0,0,-7.5257,-7.5283,-7.5509,-7.5409,-7.5438,-7.55,-7.556,-7.5569,-7.5608,-7.5677,-7.5688,-7.5626,-7.5747,-7.5769,-7.5881,-7.5932,-7.5846,-7.5855,-7.6177,-7.6183,-7.6188,-7.6217,0,0,0,0,0,0,-7.5248,-7.5281,-7.5326,-7.541,-7.5443,-7.5604,-7.5563,-7.5574,-7.5624,-7.5622,-7.5707,-7.5718,-7.5746,-7.5867,-7.589,-7.5943,-7.5862,-7.6173,-7.618,-7.6186,-7.6211,-7.6222,-7.6232,0,0,0,0,0,-7.5237,-7.5327,-7.5328,-7.5355,-7.5501,-7.5607,-7.5626,-7.5657,-7.5629,-7.5674,-7.5719,-7.5716,-7.5924,-7.5878,-7.5904,-7.5961,-7.617,-7.6178,-7.6185,-7.6207,-7.622,-7.6232,0,0,0,0,0,0,-7.5246,-7.5338,-7.534,-7.546,-7.5526,-7.5607,-7.5666,-7.567,-7.5744,-7.5739,-7.5774,-7.5793,-7.5905,-7.5945,-7.5892,-7.6082,-7.6043,-7.6057,-7.6051,-7.6064,-7.6074,-7.606,-7.587,0,0,0,0,0,-7.5262,-7.5341,-7.5418,-7.5516,-7.555,-7.5603,-7.565,-7.5668,-7.5737,-7.5765,-7.5818,-7.5885,-7.5966,-7.6018,-7.6096,-7.6219,-7.6237,-7.6272,-7.6282,-7.629,-7.63,-7.6368,-7.6384,-7.6215,-7.6215,-7.6215,0,0,-7.5296,-7.5356,-7.5403,-7.552,-7.5573,-7.5654,-7.5625,-7.5712,-7.5772,-7.5778,-7.5886,-7.5928,-7.6006,-7.6124,-7.6179,-7.6161,-7.6352,-7.63,-7.6306,-7.6312,-7.6378,-7.6394,-7.6408,-7.6221,-7.622,-7.6219,0,0,-7.5397,-7.5452,-7.554,-7.5594,-7.5676,-7.5711,-7.5732,-7.5814,-7.5842,-7.5953,-7.5959,-7.6032,-7.617,-7.6225,-7.6271,-7.6399,-7.6398,-7.6424,-7.6475,-7.6542,-7.6555,-7.6567,-7.6611,-7.6626,-7.6435,-7.6435,-7.6435,0,-7.5428,-7.555,-7.5584,-7.5671,-7.5722,-7.5734,-7.5823,-7.5875,-7.5977,-7.6012,-7.5992,-7.6167,-7.622,-7.6351,-7.6383,-7.642,-7.6445,-7.6412,-7.655,-7.6563,-7.6574,-7.6617,-7.6633,-7.6437,-7.6437,-7.6436,-7.6436,0,-7.5584,-7.5669,-7.573,-7.583,-7.5888,-7.5976,-7.6024,-7.608,-7.6095,-7.6132,-7.6245,-7.631,-7.6402,-7.6435,-7.645,-7.657,-7.6556,-7.6543,-7.6504,-7.6592,-7.6632,-7.6649,-7.644,-7.644,-7.6439,-7.6438,0,0,-7.569,-7.5811,-7.5832,-7.5878,-7.5971,-7.6037,-7.6127,-7.6218,-7.6264,-7.6336,-7.6411,-7.653,-7.652,-7.6572,-7.6594,-7.6653,-7.6749,-7.6633,-7.6635,-7.665,-7.6883,-7.689,-7.6908,-7.6751,-7.6754,-7.6757,-7.6876,0,-7.58,-7.5959,-7.5994,-7.613,-7.6209,-7.6224,-7.6302,-7.6367,-7.6406,-7.6479,-7.6523,-7.6606,-7.6586,-7.6618,-7.6677,-7.6724,-7.6795,-7.6717,-7.682,-7.6823,-7.6796,-7.6929,-7.6936,-7.7045,-7.6892,-7.6895,-7.6897,0,-7.5948,-7.6024,-7.6169,-7.6252,-7.6287,-7.6356,-7.6443,-7.6513,-7.6589,-7.6613,-7.6674,-7.6691,-7.6785,-7.6745,-7.6876,-7.6821,-7.6867,-7.6897,-7.6902,-7.6909,-7.6862,-7.6938,-7.7081,-7.7096,-7.6922,-7.692,-7.6918,0,-7.6009,-7.6148,-7.6252,-7.6292,-7.6393,-7.6441,-7.6485,-7.6558,-7.6611,-7.6688,-7.6723,-7.681,-7.6856,-7.6923,-7.6963,-7.6931,-7.7091,-7.7054,-7.7113,-7.7111,-7.7142,-7.7138,-7.7291,-7.7177,-7.7177,-7.7176,-7.7176,0,-7.6125,-7.6212,-7.6281,-7.6345,-7.6444,-7.6485,-7.6582,-7.6626,-7.6692,-7.6765,-7.6784,-7.6852,-7.6903,-7.6979,-7.7011,-7.7114,-7.7136,-7.7157,-7.7164,-7.7154,-7.715,-7.7181,-7.7173,-7.7181,-7.718,-7.7179,-7.7178,0,-7.6208,-7.6257,-7.6372,-7.6459,-7.6484,-7.6552,-7.6627,-7.669,-7.6732,-7.6824,-7.6848,-7.6913,-7.7003,-7.7051,-7.7164,-7.7186,-7.7301,-7.7305,-7.7275,-7.7277,-7.7332,-7.7325,-7.7506,-7.7531,-7.7403,-7.7404,-7.7405,0,-7.6277,-7.6344,-7.644,-7.6491,-7.6536,-7.6618,-7.6672,-7.6717,-7.6773,-7.6866,-7.6918,-7.701,-7.7085,-7.7229,-7.7286,-7.7373,-7.7378,-7.7436,-7.7391,-7.7378,-7.7376,-7.737,-7.7376,-7.7442,-7.7443,-7.7444,-7.7445,0,-7.6394,-7.6416,-7.6494,-7.6581,-7.6646,-7.6717,-7.6787,-7.6828,-7.6884,-7.6947,-7.704,-7.7099,-7.7215,-7.7306,-7.7398,-7.7444,-7.7454,-7.746,-7.7477,-7.7465,-7.7443,-7.7453,-7.7293,-7.7454,-7.7453,-7.7452,-7.7452,-7.7451,-7.647,-7.6531,-7.6608,-7.6695,-7.6753,-7.6819,-7.6882,-7.6933,-7.7011,-7.7109,-7.7132,-7.723,-7.7307,-7.7431,-7.7481,-7.7559,-7.7547,-7.7573,-7.7579,-7.7584,-7.7585,-7.7435,-7.7576,-7.7576,-7.7576,-7.7576,-7.7575,0,-7.6586,-7.6637,-7.6717,-7.6815,-7.6884,-7.689,-7.6968,-7.7025,-7.7111,-7.7182,-7.7257,-7.7364,-7.7453,-7.7519,-7.761,-7.766,-7.7667,-7.7682,-7.7677,-7.7687,-7.7591,-7.7565,-7.7675,-7.7675,-7.7675,-7.7675,-7.7675,-7.7675,-7.6654,-7.6757,-7.6789,-7.6922,-7.6973,-7.7069,-7.7114,-7.7175,-7.7232,-7.7351,-7.7425,-7.7468,-7.7537,-7.7634,-7.7716,-7.7734,-7.7765,-7.778,-7.7797,-7.7705,-7.7694,-7.7684,-7.7659,-7.7787,-7.7787,-7.7886,-7.7887,-7.7888]},{"header":{"parameterUnit":"m.s-1","parameterCategory":1,"la1":30.2991,"la2":30.254,"lo1":-89.0895,"lo2":-89.0444,"dy":0.0017,"dx":0.0017,"nx":28,"ny":28,"refTime":"2024-04-27T03:00:00:Z","depth":0,"parameterNumber":3,"parameterNumberName":"V-component_of_WINDS"},"data":[0,0,0,0,0,0,0,0,0,0,0,0,0,0,0,0,0,0,0,0,0,0,0,0,0,0,0,0,0,0,0,0,0,0,0,0,0,0,0,0,0,0,0,0,0,0,0,0,0,0,0,0,0,0,0,0,0,0,4.8079,4.8079,0,4.8099,4.8099,4.8099,4.8082,4.8081,4.808,4.808,4.8097,4.8098,4.81,0,0,0,0,0,0,0,0,0,0,0,0,0,4.8024,4.8025,4.8079,4.8079,4.8079,4.8099,4.8099,4.8099,4.8082,4.8081,4.808,4.8079,4.8097,4.8098,4.81,0,0,0,0,0,0,0,0,0,0,0,0,0,4.8047,4.8026,4.8079,4.8073,4.8073,4.8099,4.8099,4.81,4.8082,4.8081,4.808,4.8079,4.8097,4.8098,4.81,4.8132,0,0,4.8105,4.8106,0,0,0,0,0,0,0,0,4.8045,4.8048,4.8073,4.8073,4.8073,4.8087,4.8086,4.811,4.8082,4.8078,4.808,4.8078,4.8095,4.8096,4.8102,4.8133,4.8134,4.8105,4.8106,4.8107,4.8108,0,0,0,0,0,0,0,4.8044,4.8048,4.8087,4.8074,4.8074,4.8069,4.8071,4.8091,4.8092,4.8079,4.8077,4.808,4.8094,4.8101,4.8103,4.8134,4.8105,4.8107,4.8108,4.8108,4.8195,4.8196,0,0,0,0,0,0,4.8043,4.8046,4.8086,4.8087,4.8056,4.8071,4.8073,4.8083,4.8092,4.8092,4.8081,4.8079,4.8098,4.8101,4.8103,4.8144,4.8107,4.8109,4.811,4.8194,4.8195,4.8197,0,0,0,0,0,0,4.8042,4.8047,4.8085,4.8067,4.8071,4.8073,4.8085,4.8084,4.8091,4.8094,4.8094,4.8088,4.8098,4.8101,4.8126,4.8144,4.8109,4.8111,4.8192,4.8194,4.8196,4.8223,0,0,0,0,0,0,4.804,4.8046,4.8059,4.8067,4.8072,4.8108,4.8086,4.8086,4.8094,4.8092,4.81,4.81,4.8097,4.8124,4.8128,4.8146,4.8112,4.8191,4.8193,4.8195,4.8221,4.8226,4.823,0,0,0,0,0,4.8039,4.8064,4.8059,4.8064,4.8087,4.8109,4.8112,4.8108,4.8096,4.8108,4.8111,4.81,4.8141,4.8126,4.8131,4.8149,4.8189,4.8192,4.8195,4.8219,4.8225,4.823,0,0,0,0,0,0,4.8056,4.8065,4.806,4.8089,4.8098,4.8106,4.8121,4.8115,4.8127,4.8124,4.8119,4.8121,4.8148,4.8151,4.8134,4.8183,4.8163,4.8167,4.818,4.8186,4.819,4.8189,4.8114,0,0,0,0,0,4.8063,4.808,4.8087,4.8112,4.8117,4.8119,4.8128,4.8125,4.8134,4.8138,4.8142,4.815,4.8166,4.8176,4.819,4.8221,4.8224,4.8237,4.8241,4.8245,4.8249,4.8269,4.8275,4.8206,4.8206,4.8206,0,0,4.8078,4.8085,4.8096,4.8116,4.8123,4.8141,4.8122,4.8141,4.8155,4.814,4.8165,4.8169,4.8178,4.8208,4.8221,4.8211,4.8269,4.8249,4.8252,4.8253,4.8272,4.8279,4.8285,4.8208,4.8208,4.8207,0,0,4.8115,4.8122,4.8145,4.8153,4.8165,4.8166,4.8172,4.8181,4.8184,4.8209,4.8199,4.8215,4.8241,4.8249,4.8256,4.8301,4.8292,4.8305,4.833,4.8349,4.8355,4.8359,4.8377,4.8383,4.8309,4.8309,4.8309,0,4.8132,4.8159,4.8157,4.8178,4.8188,4.8178,4.8202,4.821,4.8225,4.8232,4.8221,4.8256,4.8261,4.8294,4.8305,4.8311,4.8318,4.8304,4.8354,4.8359,4.8363,4.838,4.8387,4.831,4.831,4.831,4.831,0,4.8181,4.82,4.8217,4.8235,4.8247,4.8269,4.827,4.8282,4.8279,4.8282,4.8309,4.8316,4.8332,4.834,4.8335,4.8372,4.8366,4.8355,4.8336,4.8372,4.8388,4.8394,4.8313,4.8312,4.8312,4.8311,0,0,4.8228,4.8246,4.8253,4.8262,4.8276,4.8291,4.8313,4.8331,4.8343,4.8354,4.8374,4.8397,4.8388,4.8397,4.8394,4.841,4.8448,4.8397,4.8397,4.8408,4.8492,4.8501,4.8508,4.8442,4.8443,4.8444,4.8491,0,4.8267,4.8308,4.8308,4.8345,4.8364,4.8356,4.8376,4.8387,4.8391,4.8407,4.8411,4.8429,4.8414,4.842,4.8436,4.844,4.8465,4.8436,4.8461,4.8462,4.846,4.8516,4.8525,4.8569,4.8497,4.8498,4.8499,0,4.8318,4.8334,4.8374,4.8388,4.8396,4.8414,4.8432,4.8448,4.8461,4.8462,4.8474,4.8469,4.8493,4.8473,4.8506,4.8487,4.8497,4.8501,4.8503,4.8505,4.8483,4.8522,4.8583,4.859,4.8508,4.8507,4.8507,0,4.8351,4.8382,4.8411,4.8418,4.8435,4.8448,4.8456,4.8468,4.8479,4.8495,4.8503,4.852,4.853,4.8544,4.8544,4.8529,4.8579,4.8558,4.8581,4.8582,4.8592,4.8592,4.8658,4.8597,4.8597,4.8597,4.8597,0,4.8395,4.842,4.8426,4.8444,4.8473,4.8473,4.8501,4.8507,4.8518,4.8538,4.8531,4.8549,4.8548,4.8566,4.8567,4.8596,4.86,4.8602,4.8602,4.8603,4.8603,4.861,4.8608,4.8599,4.8598,4.8598,4.8598,0,4.8437,4.8441,4.8473,4.8487,4.8491,4.8512,4.8524,4.8541,4.8545,4.857,4.8576,4.8582,4.8603,4.8605,4.863,4.863,4.8666,4.8662,4.8662,4.8662,4.8686,4.8684,4.8759,4.877,4.8701,4.8702,4.8702,0,4.8465,4.8485,4.8502,4.8516,4.8525,4.8545,4.8558,4.8559,4.8573,4.8591,4.8607,4.8628,4.8645,4.8681,4.8687,4.8706,4.8704,4.8729,4.8706,4.8708,4.8706,4.8705,4.8708,4.8733,4.8734,4.8734,4.8735,0,4.8517,4.8519,4.8538,4.8559,4.8576,4.8592,4.8607,4.8618,4.8621,4.8637,4.866,4.8674,4.8701,4.8723,4.8742,4.8749,4.8743,4.8742,4.8749,4.8751,4.8751,4.8753,4.8675,4.874,4.874,4.8739,4.8739,4.8739,4.8554,4.8572,4.8588,4.8611,4.8623,4.8638,4.8656,4.8664,4.8683,4.8706,4.8706,4.8732,4.8746,4.8772,4.8781,4.8802,4.8793,4.8802,4.8805,4.8808,4.8811,4.8747,4.8805,4.8805,4.8805,4.8805,4.8805,0,4.8606,4.8617,4.8638,4.8661,4.8679,4.8673,4.869,4.8706,4.873,4.8744,4.8762,4.879,4.8812,4.8821,4.8843,4.8858,4.8856,4.8863,4.8863,4.8865,4.8816,4.8809,4.8865,4.8865,4.8865,4.8865,4.8865,4.8865,4.8636,4.8668,4.8672,4.8711,4.8721,4.8747,4.8758,4.8773,4.8785,4.8817,4.8836,4.8842,4.8855,4.8878,4.8898,4.89,4.8909,4.8919,4.892,4.8874,4.8868,4.8862,4.8856,4.892,4.892,4.8967,4.8967,4.8968]}]]